ONEWEB-0138 (47284 NORAD) Tracking and Keplerian Element Data

This shows tracking and keplerian element data for the satellite.

Feedback or suggestion? Click here.




ElementValue
Catalog47284
NameONEWEB-0138
Epoch Orbit437
Epoch Day16.16667824
Epoch Year2021
RAAN29.6015
Inclination87.3606
Eccentricity0.0012108
Argument of Perigee162.013
Mean Anonmoly0.7602
Mean Motion15.02327869
Decay Rate-0.01458307
L11 47284U 20100AC 21016.16667824 -.01458307 00000-0 -12069+0 0 9995
L22 47284 87.3606 29.6015 0012108 162.0130 0.7602 15.02327869 4377

Live tracking and technical data element details for ONEWEB-0138 (NORAD 47284). ONEWEB-0138 can be tracked NOW for your location showing map with azimuth and elevation plus other details from your city location.

Track the satellite on the map from your city or location and see movement details for azimuth, elevation, latitude, longitude, range, height, and movement on the map or in text.







IsCatalogInMostPopularTable: catalog: 47284, numindb: 9
Update: records affected: 1



GetName: 47284 ONEWEB-0138

Hit Count: updated at: Sun, 17 Jan 2021 08:57:05 GMT